TimeAKDT,TemperatureF,Dew PointF,Humidity,Sea Level PressureIn,VisibilityMPH,Wind Direction,Wind SpeedMPH,Gust SpeedMPH,PrecipitationIn,Events,Conditions,WindDirDegrees,DateUTC
12:53 AM,53.1,53.1,100,30.02,10.0,NW,4.6,-,N/A,,Overcast,320,2012-09-22 08:53:00
1:34 AM,53.6,51.8,94,30.02,10.0,North,4.6,-,N/A,,Overcast,360,2012-09-22 09:34:00
1:53 AM,53.1,52.0,96,30.02,10.0,North,4.6,-,N/A,,Overcast,10,2012-09-22 09:53:00
2:53 AM,53.1,52.0,96,30.01,10.0,East,4.6,-,N/A,,Overcast,90,2012-09-22 10:53:00
3:53 AM,53.1,53.1,100,30.00,10.0,SSE,3.5,-,N/A,,Overcast,150,2012-09-22 11:53:00
4:53 AM,53.1,53.1,100,29.99,10.0,SW,3.5,-,N/A,,Overcast,230,2012-09-22 12:53:00
5:28 AM,53.6,53.6,100,29.99,10.0,Calm,Calm,-,N/A,,Overcast,0,2012-09-22 13:28:00
5:53 AM,53.1,53.1,100,29.98,10.0,ENE,4.6,-,N/A,,Overcast,60,2012-09-22 13:53:00
6:53 AM,52.0,52.0,100,29.98,10.0,SE,4.6,-,N/A,,Mostly Cloudy,140,2012-09-22 14:53:00
7:05 AM,51.8,51.8,100,29.98,10.0,ESE,3.5,-,N/A,,Mostly Cloudy,120,2012-09-22 15:05:00
7:53 AM,53.1,52.0,96,29.98,10.0,East,4.6,-,N/A,,Mostly Cloudy,80,2012-09-22 15:53:00
8:53 AM,54.0,52.0,93,29.98,10.0,Calm,Calm,-,N/A,,Overcast,0,2012-09-22 16:53:00
9:53 AM,55.0,53.1,93,29.97,10.0,Calm,Calm,-,N/A,,Overcast,0,2012-09-22 17:53:00
10:53 AM,55.9,53.1,90,29.97,10.0,Calm,Calm,-,N/A,,Overcast,0,2012-09-22 18:53:00
11:53 AM,55.9,53.1,90,29.96,10.0,WNW,8.1,-,N/A,,Mostly Cloudy,290,2012-09-22 19:53:00
12:53 PM,57.9,53.1,84,29.95,10.0,West,11.5,-,N/A,,Mostly Cloudy,270,2012-09-22 20:53:00
1:53 PM,57.0,53.1,87,29.96,10.0,SW,13.8,-,N/A,,Overcast,220,2012-09-22 21:53:00
2:53 PM,57.9,52.0,81,29.94,10.0,Calm,Calm,-,N/A,,Overcast,0,2012-09-22 22:53:00
3:53 PM,60.1,48.9,67,29.91,10.0,ESE,5.8,-,N/A,,Overcast,110,2012-09-22 23:53:00
4:53 PM,60.1,48.9,67,29.90,10.0,SE,12.7,-,N/A,,Overcast,130,2012-09-23 00:53:00
5:53 PM,59.0,48.0,67,29.90,10.0,ESE,15.0,-,N/A,,Overcast,120,2012-09-23 01:53:00
6:53 PM,59.0,46.9,64,29.90,10.0,ESE,11.5,-,0.00,Rain,Light Rain,120,2012-09-23 02:53:00
7:53 PM,57.0,48.9,74,29.90,8.0,SE,8.1,-,0.02,Rain,Light Rain,140,2012-09-23 03:53:00
8:53 PM,54.0,51.1,90,29.91,5.0,ENE,4.6,-,0.18,Rain,Rain,70,2012-09-23 04:53:00
9:53 PM,55.0,51.1,86,29.90,5.0,ESE,15.0,-,0.18,Rain,Rain,120,2012-09-23 05:53:00
10:53 PM,57.0,48.9,74,29.91,10.0,ESE,12.7,-,0.03,,Overcast,120,2012-09-23 06:53:00
11:53 PM,57.0,48.9,74,29.91,10.0,ESE,17.3,24.2,N/A,,Overcast,120,2012-09-23 07:53:00